Location: Newark
(35.5300°N, 14.3000°E)
Time: 02:19:50
(UTC+00:00)

S-56A Canister/Altair - Pass Details

Date: 13 November 2019
Orbit: 633 x 2499 km, 38.9° (Epoch: 07 December)

Event Time Altitude Azimuth Distance (km) Brightness Sun altitude
Rises 16:34:15 0° 226° (SW) 5,023 13.0 -7.8°
Reaches altitude 10° 16:38:11 10° 221° (SW) 3,722 12.0 -8.6°
Maximum altitude 16:46:37 45° 153° (SSE) 1,492 8.9 -10.3°
Enters shadow 16:51:39 14° 84° (E) 2,317 9.3 -11.3°
